Flag for Portugal Weather past 2 weeks in Ponta Delgada, Azores, Portugal

Now
59 °F

Passing clouds.


Feels Like: 56 °F
Forecast: 58 / 62 °F
Wind: 17 mph from Northwest

Location: Ponta Delgada / Nordela Acores

Current Time: Apr 18, 2015 at 11:41:09 AM

Latest Report: Apr 18, 2015 at 11:00 AM


Visibility: N/A

Pressure: 30.04 "Hg

Humidity: 77%

Dew point: 52 °F

Location of Ponta DelgadaLocation

Historic Weather in Ponta Delgada — Graph

°F

Ponta Delgada temperature yesterday

Maximum temperature yesterday: 63 °F (at 2:00 PM)
Minimum temperature yesterday: 50 °F (at 12:30 AM)
Average temperature yesterday: 58 °F

Past Weeks' High & Low Weather Summary

 TemperatureHumidityPressure
High64 °F (Apr 4, 2:30 PM)100% (Apr 4, 12:30 PM)30.33 "Hg (Apr 4, 12:30 PM)
Low46 °F (Apr 10, 3:30 AM)51% (Apr 12, 4:00 PM)29.95 "Hg (Apr 18, 5:00 AM)
Average57 °F73%30.18 "Hg
* Reported Apr 3 10:00 AM — Apr 18 10:30 AM, Ponta Delgada, Weather by CustomWeather, © 2015

Note: Actual official high and low records may vary slightly from our data, if they occured in-between our weather recording intervals... More about our weather records

Advertising

Ponta Delgada weather history for previous 24 hours

 ConditionsComfort  
Time TempWeatherWind HumidityBarometerVisibility
10:30 AM
Sat, Apr 18
59 °FPassing clouds.20 mph77%30.04 "HgN/A
10:00 AM59 °FPassing clouds.18 mph77%30.01 "HgN/A
9:30 AM57 °FScattered clouds.8 mph88%30.01 "HgN/A
9:00 AM57 °FScattered showers. Scattered clouds.6 mph88%30.01 "HgN/A
8:30 AM57 °FScattered clouds.6 mph88%30.01 "HgN/A
8:00 AM55 °FSprinkles. Passing clouds.12 mph88%29.98 "HgN/A
7:30 AM55 °FSprinkles. Passing clouds.18 mph88%29.98 "HgN/A
7:00 AM55 °FPassing clouds.25 mph94%29.95 "Hg5 mi
6:30 AM57 °FSprinkles. Passing clouds.16 mph94%29.95 "Hg5 mi
6:00 AM63 °FPassing clouds.20 mph88%29.95 "HgN/A
5:30 AM63 °FPassing clouds.20 mph88%29.95 "HgN/A
5:00 AM61 °FPassing clouds.17 mph94%29.95 "HgN/A
4:30 AM61 °FPassing clouds.18 mph94%29.98 "HgN/A
4:00 AM61 °FPartly cloudy.16 mph94%29.98 "HgN/A
3:30 AM61 °FPassing clouds.17 mph94%29.98 "HgN/A
3:00 AM61 °FPassing clouds.17 mph94%30.01 "HgN/A
2:30 AM61 °FPassing clouds.16 mph94%30.01 "HgN/A
2:00 AM61 °FPassing clouds.16 mph88%30.04 "HgN/A
1:30 AM61 °FPassing clouds.15 mph88%30.04 "HgN/A
1:00 AM61 °FPassing clouds.15 mph88%30.04 "HgN/A
12:30 AM61 °FPartly cloudy.15 mph94%30.04 "HgN/A
12:00 AM61 °FPassing clouds.14 mph94%30.07 "HgN/A
11:30 PM
Fri, Apr 17
61 °FPassing clouds.13 mph88%30.07 "HgN/A
11:00 PM61 °FPassing clouds.10 mph88%30.07 "HgN/A
10:30 PM61 °FPartly cloudy.12 mph88%30.07 "HgN/A
10:00 PM61 °FPassing clouds.14 mph88%30.09 "HgN/A
9:30 PM61 °FPassing clouds.16 mph88%30.09 "HgN/A
9:00 PM61 °FPartly sunny.14 mph88%30.07 "HgN/A
8:30 PM59 °FPartly sunny.16 mph94%30.07 "HgN/A
8:00 PM61 °FBroken clouds.17 mph83%30.07 "HgN/A
7:30 PM61 °FBroken clouds.18 mph83%30.07 "HgN/A
7:00 PM61 °FBroken clouds.18 mph77%30.09 "HgN/A
6:30 PM61 °FBroken clouds.18 mph77%30.09 "HgN/A
6:00 PM61 °FBroken clouds.17 mph77%30.09 "HgN/A
5:30 PM61 °FPartly sunny.18 mph72%30.09 "HgN/A
5:00 PM61 °FPartly sunny.17 mph72%30.09 "HgN/A
4:30 PM61 °FPartly sunny.18 mph72%30.12 "HgN/A
4:00 PM61 °FPartly sunny.16 mph68%30.12 "HgN/A
3:30 PM61 °FScattered clouds.16 mph68%30.15 "HgN/A
3:00 PM61 °FScattered clouds.16 mph68%30.15 "HgN/A
2:30 PM61 °FPassing clouds.16 mph63%30.15 "HgN/A
2:00 PM63 °FPassing clouds.17 mph56%30.15 "HgN/A
1:30 PM61 °FPassing clouds.17 mph63%30.18 "HgN/A
1:00 PM61 °FPassing clouds.17 mph59%30.18 "HgN/A
12:30 PM61 °FPassing clouds.17 mph59%30.18 "HgN/A
12:00 PM61 °FPassing clouds.16 mph59%30.18 "HgN/A
11:30 AM61 °FPassing clouds.15 mph59%30.18 "HgN/A
11:00 AM59 °FPassing clouds.14 mph59%30.18 "HgN/A
Weather by CustomWeather, © 2015

See weather overviewHow to use our weather pages